FLOCK 4P-9

Last updated on Sat Dec 28 2019 00:02:03 GMT+0000 (Coordinated Universal Time)

1 44807U 19081D 19360.71337043 .00000512 00000-0 27584-4 0 9997 2 44807 97.5200 57.6342 0015064 139.9615 220.2732 15.19185764 4486

Satellite not in orbit

FLOCK 4P-9